Hourly Weather Roundup
Issued by NWS Central Illinois

Home | Current Version | Previous Version | Text Only | Print | Product List | Glossary On
Versions: 1 2 3 4 5 6 7 8 9 10 11 12 13 14 15 16 17 18 19 20 21 22 23 24 25 26 27 28 29 30 31 32 33 34 35 36 37 38 39 40 41 42 43 44 45 46 47 48 49 50
000
NZUS43 KILX 291310
HWRILX

AREA WEATHER ROUNDUP
NATIONAL WEATHER SERVICE, LINCOLN IL
700 AM CST MON DEC 29 2014


CITY           SKY/WX    TMP DP  RH WIND       PRES   REMARKS
BLOOMINGTON    CLEAR     20  18  92 CALM      30.30R
CHAMPAIGN      CLEAR     20  16  84 N5        30.30R WCI  13
DECATUR        CLEAR     21  19  92 NE3       30.30R
FLORA          CLEAR     24  23  95 N5        30.29R WCI  18
GALESBURG      PTCLDY    21  18  91 NE3       30.30R
JACKSONVILLE   PTCLDY    20  17  88 CALM      30.30R
LACON          MOCLDY    17  15  90 CALM      30.32R
LAWRENCEVILLE  CLEAR     24  21  88 NE7       30.29R WCI  16
LITCHFIELD     CLEAR     22  20  92 NE5       30.28S FOG     WCI  16
$$


CITY           SKY/WX    TMP DP  RH WIND       PRES   REMARKS
LINCOLN        CLEAR     20  18  92 CALM      30.32R
MACOMB         CLOUDY    20  19  95 CALM      30.32R
MATTOON        CLEAR     20  18  92 NE5       30.28R WCI  13
MT CARMEL AP   CLEAR     28  25  86 NE6       30.28R WCI  22
OLNEY-NOBLE AP CLEAR     25  23  93 CALM      30.29R
PARIS          CLEAR     21  20  97 CALM      30.30S
PEORIA         MOCLDY    21  17  84 CALM      30.32R
PONTIAC        PTCLDY    20  19  93 CALM      30.32R
RANTOUL        CLEAR     22  18  83 N6        30.30R WCI  15
ROBINSON       CLEAR     22  21  96 N7        30.31R WCI  14
SPRINGFIELD    CLEAR     19  16  88 CALM      30.31R
TAYLORVILLE    CLEAR     23  21  93 NE3       30.29S FOG
$$

...REGIONAL REPORTS...


CITY           SKY/WX    TMP DP  RH WIND       PRES   REMARKS
CHICAGO O`HARE MOCLDY    25  19  78 N9        30.32R WCI  15
KANKAKEE       CLEAR     20  18  91 CALM      30.32R
MOLINE         CLOUDY    21  18  88 E3        30.32R
MOUNT VERNON   CLEAR     21  16  79 CALM      30.28R
PITTSFIELD     CLEAR     23  21  93 CALM      30.30R
QUINCY         CLEAR     22  18  85 E5        30.28R WCI  16
ROCKFORD       MOCLDY    23  17  78 N10       30.36R WCI  12
$$


CITY           SKY/WX    TMP DP  RH WIND       PRES   REMARKS
BURLINGTON     CLEAR     23  20  88 NE5       30.30R WCI  17
CEDAR RAPIDS   LGT SNOW  25  23  92 NE8       30.32R FOG     WCI  16
DES MOINES     CLOUDY    25  21  85 NE10      30.33R WCI  15
KIRKSVILLE     CLEAR     21  18  88 NE5       30.28R WCI  15
OTTUMWA        CLOUDY    26  20  77 NE7       30.30R WCI  18
ST LOUIS       PTCLDY    22  17  81 E3        30.29R
$$


CITY           SKY/WX    TMP DP  RH WIND       PRES   REMARKS
TERRE HAUTE    CLEAR     21  19  92 N3        30.29R
EVANSVILLE     CLOUDY    32  25  75 N8        30.26R WCI  25
INDIANAPOLIS   PTCLDY    20  18  92 N5        30.27R WCI  13
LAFAYETTE      CLEAR     18  15  88 CALM      30.30R
MADISON        MOCLDY    17  11  77 N8        30.37R WCI   7
MILWAUKEE      PTCLDY    20  11  68 N9        30.35R WCI   9
$$




USA.gov is the U.S. government's official web portal to all federal, state and local government web resources and services.